Location: Airlie Beach - Cannonvale QLD, Australia
(20.2768°S, 148.7558°E)
Time: 16:02:46
(UTC+10:00)

Tiangong - Pass Details

Date: 24 May 2026
Orbit: 381 x 392 km, 41.5° (Epoch: 8 June)

Event Time Altitude Azimuth Distance (km) Brightness Sun altitude
Exits shadow 05:40:51 20° 256° (WSW) 971 -0.8 -11.7°
Maximum altitude 05:42:13 27° 215° (SW) 780 -1.0 -11.4°
Drops below altitude 10° 05:44:58 10° 154° (SSE) 1,407 0.8 -10.8°
Sets 05:47:15 0° 141° (SE) 2,263 2.0 -10.3°
